TimeCDT,TemperatureF,Dew PointF,Humidity,Sea Level PressureIn,VisibilityMPH,Wind Direction,Wind SpeedMPH,Gust SpeedMPH,PrecipitationIn,Events,Conditions,WindDirDegrees,DateUTC
12:53 AM,50.0,44.1,80,30.04,10.0,WSW,5.8,-,N/A,,Clear,240,2013-05-11 05:53:00
1:53 AM,51.1,44.1,77,30.02,10.0,WSW,4.6,-,N/A,,Clear,250,2013-05-11 06:53:00
2:53 AM,51.1,43.0,74,30.01,10.0,WSW,4.6,-,N/A,,Clear,250,2013-05-11 07:53:00
3:53 AM,48.9,43.0,80,30.01,10.0,West,6.9,-,N/A,,Clear,260,2013-05-11 08:53:00
4:53 AM,50.0,44.1,80,30.01,10.0,West,8.1,-,N/A,,Overcast,280,2013-05-11 09:53:00
5:53 AM,52.0,43.0,71,30.05,10.0,NNW,11.5,20.7,N/A,,Mostly Cloudy,340,2013-05-11 10:53:00
6:53 AM,51.1,33.1,50,30.08,10.0,North,20.7,28.8,N/A,,Mostly Cloudy,350,2013-05-11 11:53:00
7:53 AM,51.1,30.9,46,30.12,10.0,North,18.4,-,N/A,,Clear,350,2013-05-11 12:53:00
8:53 AM,54.0,30.0,40,30.13,10.0,North,18.4,28.8,N/A,,Clear,350,2013-05-11 13:53:00
9:53 AM,55.0,27.0,34,30.15,10.0,North,21.9,39.1,N/A,,Clear,360,2013-05-11 14:53:00
10:53 AM,55.9,28.0,34,30.16,10.0,North,26.5,38.0,N/A,,Clear,350,2013-05-11 15:53:00
11:53 AM,57.0,28.9,34,30.17,10.0,North,26.5,35.7,N/A,,Clear,350,2013-05-11 16:53:00
12:53 PM,57.9,30.0,35,30.18,10.0,NNW,25.3,33.4,N/A,,Clear,330,2013-05-11 17:53:00
1:53 PM,57.9,32.0,37,30.18,10.0,North,26.5,35.7,N/A,,Clear,350,2013-05-11 18:53:00
2:53 PM,59.0,30.0,33,30.18,10.0,NNW,18.4,34.5,N/A,,Clear,340,2013-05-11 19:53:00
3:53 PM,59.0,30.0,33,30.19,10.0,NNW,25.3,32.2,N/A,,Clear,340,2013-05-11 20:53:00
4:53 PM,57.9,27.0,31,30.19,10.0,NNW,17.3,27.6,N/A,,Clear,340,2013-05-11 21:53:00
5:53 PM,57.0,25.0,29,30.19,10.0,North,18.4,28.8,N/A,,Clear,350,2013-05-11 22:53:00
6:53 PM,55.0,23.0,29,30.19,10.0,NNW,17.3,26.5,N/A,,Clear,340,2013-05-11 23:53:00
7:53 PM,52.0,23.0,32,30.20,10.0,NNW,11.5,-,N/A,,Clear,340,2013-05-12 00:53:00
9:53 PM,44.1,28.0,53,30.23,10.0,WNW,6.9,-,N/A,,Clear,300,2013-05-12 02:53:00
10:53 PM,43.0,28.0,56,30.24,10.0,NW,6.9,-,N/A,,Clear,310,2013-05-12 03:53:00
11:53 PM,41.0,28.0,60,30.24,10.0,NNW,6.9,-,N/A,,Clear,330,2013-05-12 04:53:00